{"data":{"norad_id":56958,"intl_designator":"2023-084AC","name":"GHOST-3","alt_names":[],"object_type":"PAYLOAD","status":"ACTIVE","operator":null,"country":"US","launch_date":"2023-06-12","launch_site_code":"AFWTR","launch_vehicle":null,"mission":null,"orbit_class":"UNKNOWN","rcs_meters":null,"size_class":null,"mass_kg":null,"dimensions":null,"purposes":[],"wikipedia_slug":null,"has_3d_model":false,"image_url":null,"decayed_at":null,"tle_current":{"epoch":"2026-09-21T09:22:02.023680Z","epoch_age_seconds":123101,"freshness":"FRESH","line1":"1 56958U 23084AC  26264.39030120  .00015696  00000+0  27162-3 0  9995","line2":"2 56958  97.6344  58.4306 0005327 301.5128  58.5603 15.51019472182914","mean_motion":15.51019472,"eccentricity":0.0005327,"inclination_deg":97.6344,"raan_deg":58.4306,"arg_perigee_deg":301.5128,"mean_anomaly_deg":58.5603,"bstar":0.00027162,"rev_number":18291,"period_min":92.842161300732,"perigee_km":410.13023491928,"apogee_km":417.36630948829,"semimajor_km":6791.8852722038,"source":"CELESTRAK","updated_at":"2026-09-22T09:00:25.994879Z"}}}